Location: Passau
(48.5830°N, 13.4830°E)
Time: 21:08:28
(UTC+02:00)

Vanguard 3 - Pass Details

Date: 22 May 2024
Orbit: 509 x 3231 km, 33.3° (Epoch: 16 June)

Event Time Altitude Azimuth Distance (km) Brightness Sun altitude
Rises 23:27:16 0° 262° (W) 5,212 11.5 -17.6°
Reaches altitude 10° 23:30:31 10° 255° (WSW) 4,551 11.0 -17.8°
Maximum altitude 23:42:43 40° 193° (SSW) 3,663 10.0 -18.5°
Enters shadow 23:55:22 18° 140° (SE) 5,388 10.7 -19.2°
Drops below altitude 10° 23:59:26 10° 134° (SE) 6,148 - -19.4°
Sets 00:04:47 0° 127° (SE) 7,169 - -19.6°
